Temperature
17 17 17 17 17 17 17 17 17 17 17 17 17 17 17 17 17 17 16 16 16 16 16 16 16 16 16 16 16 16 15 15 15 15 15 15 15 15 15 15 15 14 14
18 17 17 17 17 17 17 17 17 17 17 17 17 17 17 17 17 16 16 16 16 16 16 16 16 16 16 16 16 15 15 15 15 15 15 15 15 15 14 14 14 14 14
18 17 17 17 17 17 17 17 17 17 17 17 17 17 17 17 17 16 16 16 16 16 16 16 16 16 16 16 16 15 15 15 15 15 15 15 14 14 14 14 14 14 14
17 17 17 17 17 17 17 17 17 17 17 17 17 17 17 17 16 16 16 16 16 16 16 16 16 16 16 15 15 15 15 15 15 15 14 14 14 14 14 14 14 14 14
17 17 17 16 16 17 17 17 17 17 17 17 17 17 17 16 16 16 16 16 16 16 16 16 15 15 15 15 15 15 15 15 14 14 14 14 14 14 14 13 13 13 13
17 16 16 16 16 16 17 17 17 17 17 17 17 17 16 16 16 16 16 16 16 16 16 15 15 15 15 15 15 15 14 14 14 14 14 14 14 13 13 13 13 13 13
17 16 16 16 16 16 16 16 16 16 16 16 16 16 16 16 16 16 16 16 16 16 15 15 15 15 15 15 14 14 14 14 14 14 14 13 13 13 13 13 13 13 13
16 16 16 16 16 16 16 16 16 16 16 16 16 16 16 16 16 16 16 15 15 15 15 15 15 15 15 14 14 14 14 14 14 14 13 13 13 13 13 13 13 13 13
16 16 16 16 16 16 16 16 16 16 16 16 16 16 16 16 16 16 16 15 15 15 15 15 15 15 14 14 14 14 14 13 13 13 13 13 12 12 12 12 12 12 12
16 16 16 16 16 16 16 16 16 16 16 16 16 16 16 16 16 15 15 15 15 15 15 15 15 14 14 14 14 13 13 13 13 13 13 12 12 12 12 12 12 12 12
15 15 15 15 15 15 15 15 15 15 15 15 15 15 15 15 15 15 15 15 15 15 15 14 14 14 14 14 13 13 13 13 13 13 12 12 12 12 12 12 12 12 12
15 15 15 15 15 15 15 15 15 15 15 15 15 15 15 15 15 15 15 15 15 15 14 14 14 14 14 13 13 13 13 13 13 12 12 12 12 12 12 12 12 12 11
15 15 15 15 15 15 15 15 15 15 15 15 15 15 15 15 15 15 15 14 14 14 14 14 14 13 13 13 13 13 13 13 12 12 12 12 12 11 11 11 11 11 11
14 15 15 15 15 15 15 15 15 15 15 15 15 15 15 15 15 15 14 14 14 14 14 14 13 13 13 13 13 12 12 12 12 12 12 12 11 11 11 11 11 11 11
14 14 14 14 15 15 15 15 15 15 15 15 14 14 14 14 14 14 14 14 14 13 13 13 13 13 13 12 12 12 12 12 12 12 12 11 11 11 11 11 10 10 10
14 14 14 14 14 14 14 14 14 14 14 14 14 14 14 14 14 14 14 14 13 13 13 13 13 13 12 12 12 12 11 11 11 11 11 11 11 11 11 10 10 10 10
14 14 14 14 14 14 14 14 14 14 14 14 14 14 14 14 14 14 13 13 13 13 13 12 12 12 12 12 12 11 11 11 11 11 11 11 11 10 10 10 10 10 10
14 14 14 14 14 14 14 14 14 13 13 13 13 13 13 13 13 13 13 13 13 12 12 12 12 12 12 12 11 11 11 11 11 10 10 10 10 10 10 10 10 9 9
14 14 14 14 14 13 13 13 13 13 13 13 13 13 13 13 13 13 13 12 12 12 12 12 12 11 11 11 11 11 11 10 10 10 10 10 10 10 9 9 9 9 9
13 13 13 13 13 13 13 13 13 13 13 13 12 12 12 12 12 12 12 12 12 12 12 11 11 11 11 11 11 10 10 10 10 10 10 9 9 9 9 9 9 9 9
13 13 13 13 13 13 13 13 13 13 12 12 12 12 12 12 12 12 12 12 12 11 11 11 11 11 10 10 10 10 10 9 9 9 9 9 9 9 8 8 8 8 8
12 13 12 12 12 12 12 12 12 12 12 12 12 11 11 11 11 11 11 11 11 11 11 10 10 10 10 10 9 9 9 9 9 9 9 8 8 8 8 8 8 8 8
12 12 12 12 12 12 12 12 12 12 11 11 11 11 11 11 11 11 11 11 10 10 10 10 10 10 10 9 9 9 8 8 8 8 8 8 8 8 8 8 8 7 7
12 12 12 12 12 12 12 11 11 11 11 11 11 10 10 10 10 10 10 10 10 10 10 10 9 9 9 9 9 8 8 8 8 7 8 8 8 8 7 7 7 7 7
11 11 11 11 11 11 11 11 11 11 11 10 10 10 10 10 10 10 10 10 10 9 9 9 9 9 9 8 8 8 8 7 7 7 7 7 8 8 7 7 7 6 6
11 11 11 11 11 11 11 11 10 10 10 10 10 10 10 9 9 9 9 9 9 9 9 9 9 8 8 8 8 7 7 7 7 6 6 6 6 7 7 6 6 6 6
Wind_Speed
5 9 16 17 17 17 17 18 18 18 18 19 18 18 18 17 17 17 16 16 16 16 16 17 16 16 16 17 17 16 16 16 16 15 15 15 15 15 15 14 13 13 15
9 13 18 18 17 17 17 18 18 18 18 18 18 18 17 17 17 16 16 15 16 16 16 16 16 16 15 16 16 16 15 15 15 15 14 14 14 14 14 14 13 12 14
11 14 18 18 18 17 18 18 18 18 18 18 18 17 17 16 16 16 15 16 15 15 16 15 15 15 15 15 14 14 14 14 14 14 13 12 12 13 13 13 13 13 13
12 14 16 19 18 18 18 18 18 18 17 17 17 16 16 16 16 15 15 15 15 15 15 15 14 14 14 14 13 14 13 13 13 12 11 11 10 11 12 12 12 12 12
11 14 17 19 18 17 17 17 17 17 17 16 16 16 16 16 16 15 15 15 15 14 14 14 14 14 13 13 13 13 13 13 13 12 11 11 10 10 11 11 11 11 11
10 13 17 19 18 18 17 17 16 16 16 16 16 15 15 15 15 15 14 14 14 14 13 13 13 13 13 12 12 12 12 12 12 11 10 10 9 10 11 11 10 10 10
10 12 16 19 18 17 17 16 16 15 15 16 15 15 15 14 14 14 14 13 13 13 13 12 12 12 12 12 12 11 11 11 11 10 9 8 8 9 10 10 9 9 9
10 11 15 18 18 17 17 16 16 15 15 15 15 15 15 15 14 14 13 13 12 12 12 12 11 11 11 11 11 11 10 10 9 8 8 7 8 8 9 8 8 8 8
9 10 11 14 16 16 16 16 16 15 15 14 14 14 14 14 13 13 13 12 11 11 11 11 11 11 11 11 11 10 10 10 9 7 6 6 7 7 7 7 7 7 7
7 8 9 11 13 13 14 15 15 15 14 14 14 14 13 13 13 12 11 11 11 10 10 10 10 10 10 10 10 10 9 8 8 7 6 6 7 7 7 7 7 7 7
7 6 7 9 10 12 13 14 14 14 14 14 13 13 12 11 11 10 10 10 10 10 9 9 9 9 9 9 9 9 8 7 7 6 5 6 6 6 7 7 7 7 7
9 7 6 8 9 10 10 12 11 11 12 12 11 12 11 11 10 9 9 9 9 9 9 8 8 8 8 7 7 7 7 7 6 5 5 6 6 6 7 7 7 7 7
9 7 7 7 9 9 8 9 9 9 10 10 11 11 11 10 8 8 7 7 8 8 8 7 7 7 7 6 5 5 5 5 5 5 5 6 6 6 7 7 8 8 9
8 7 7 7 8 8 8 8 8 8 8 8 9 10 10 7 6 6 6 6 6 6 6 6 5 5 5 5 5 4 4 4 4 5 5 6 6 6 7 8 8 8 9
8 7 7 7 8 8 8 7 7 7 8 8 9 9 9 7 5 5 5 5 5 5 5 4 4 4 4 4 4 4 4 3 4 5 5 6 6 7 7 8 8 8 9
8 8 7 7 7 8 6 6 6 6 8 8 8 8 9 8 7 6 5 4 4 4 4 4 4 3 3 3 4 4 3 3 3 4 5 6 7 7 7 8 8 8 9
8 7 7 7 7 8 7 7 6 6 7 6 6 7 8 8 8 6 4 3 3 4 4 5 4 4 3 3 3 3 3 3 3 4 4 5 6 7 8 9 9 9 9
8 8 7 7 7 7 6 6 6 6 6 6 6 7 7 8 8 7 4 3 3 4 4 3 2 2 2 2 2 2 3 3 4 4 5 5 6 6 8 9 10 10 10
7 8 7 7 7 7 6 6 6 6 5 5 6 6 6 7 7 7 4 3 4 4 3 2 2 2 1 2 1 2 2 2 3 3 4 5 5 6 7 8 9 10 11
6 7 7 6 6 7 6 5 5 5 4 4 5 5 6 6 6 6 4 4 4 3 2 2 2 2 1 1 1 2 2 2 2 2 3 3 4 5 6 7 8 9 10
6 6 6 7 6 6 5 4 4 3 3 2 3 5 5 5 5 5 4 3 3 2 2 2 2 3 2 1 2 2 3 2 2 2 3 3 4 5 6 6 7 7 8
6 6 6 6 6 5 4 3 3 3 3 2 3 4 4 5 5 4 4 3 3 3 3 2 2 2 1 1 2 1 2 3 3 2 2 2 3 4 5 6 7 7 8
5 6 6 6 6 5 5 5 5 4 3 2 2 1 2 4 4 4 4 4 3 3 3 2 2 3 2 1 1 2 2 2 2 3 2 2 3 2 3 5 6 7 8
3 3 4 6 6 5 6 6 7 4 3 3 2 2 2 3 4 4 4 4 3 2 3 3 2 2 3 2 0 1 1 2 1 2 3 2 3 3 3 4 6 7 8
2 3 4 5 5 5 5 6 6 4 3 2 2 3 2 2 3 4 4 4 3 2 2 2 2 2 2 2 2 1 1 1 1 2 3 3 3 2 2 3 4 6 8
2 2 4 5 5 5 5 5 5 6 5 5 3 3 2 1 2 2 3 3 3 2 2 2 2 2 2 2 2 2 2 1 1 2 2 3 4 3 3 2 3 5 7
Wind_Direction
161 156 148 141 136 131 128 124 121 118 116 115 113 111 110 108 105 102 100 99 98 95 93 91 90 88 86 85 83 80 79 78 76 75 75 74 73 72 70 66 66 63 65
149 153 146 141 137 134 130 126 123 120 118 116 114 112 111 109 107 104 101 99 99 97 93 91 89 88 86 85 83 81 79 78 76 73 71 69 70 71 69 67 67 66 63
141 147 144 141 138 135 131 129 126 122 120 117 115 113 112 111 109 106 103 100 98 96 93 92 91 88 87 86 83 81 79 78 75 72 67 61 64 69 70 68 66 64 61
136 141 143 141 138 136 133 131 128 125 122 120 117 115 114 111 110 107 104 102 98 96 94 93 92 90 89 87 86 84 81 79 76 72 63 58 59 65 68 67 65 62 59
131 138 143 141 139 138 136 133 131 128 125 123 120 118 114 112 111 109 106 103 100 98 96 95 93 91 89 88 88 86 82 79 75 70 63 58 57 63 65 64 63 62 59
131 138 143 142 141 139 136 133 131 129 128 125 122 119 116 114 112 109 107 105 102 100 98 95 94 92 89 87 88 87 84 80 74 68 62 58 58 62 63 62 60 60 57
134 137 144 143 142 140 138 134 131 129 128 126 123 120 118 116 113 110 108 105 103 101 98 96 95 94 91 89 88 87 85 83 75 66 58 56 59 61 59 58 57 55 52
135 134 143 144 142 140 138 135 132 129 126 126 125 123 119 117 114 112 110 107 103 100 99 98 96 95 94 91 87 85 84 82 74 64 56 53 57 56 53 50 49 48 44
129 130 134 139 140 140 137 134 132 129 127 125 124 123 121 119 117 115 112 110 106 103 102 100 97 95 95 92 89 85 82 78 71 61 53 51 54 50 48 44 42 40 37
127 130 129 132 135 135 135 134 131 129 128 126 121 118 119 118 116 114 113 112 110 107 105 102 98 94 94 91 88 84 79 73 64 55 47 51 51 48 45 40 36 32 29
138 132 129 128 129 131 132 132 128 125 124 121 119 116 111 109 110 111 112 112 109 107 106 103 99 95 92 87 84 82 75 68 60 47 41 45 42 43 41 33 25 22 19
156 149 138 132 131 129 131 128 124 122 120 118 118 116 112 108 109 111 109 107 105 103 101 98 97 91 84 78 74 73 70 63 56 40 34 40 37 39 37 29 21 17 15
159 151 145 139 135 132 129 128 125 124 122 120 121 120 116 108 104 100 98 96 95 92 88 87 84 80 78 75 70 67 66 61 53 42 38 38 34 32 32 30 26 22 20
154 153 148 142 137 135 133 131 130 129 127 126 129 129 123 114 106 101 97 97 95 95 88 82 83 81 77 74 73 69 64 61 53 44 39 39 33 29 28 26 24 21 19
155 154 151 146 143 140 134 134 133 135 135 135 137 138 136 130 125 114 105 100 99 101 96 87 84 78 71 64 64 69 60 55 50 45 35 38 38 31 24 21 21 18 15
163 158 152 148 146 141 138 138 137 136 136 136 140 144 143 138 134 127 114 103 97 101 100 94 89 82 70 66 54 52 50 49 45 42 38 36 36 32 23 16 14 12 12
164 155 153 152 146 145 142 139 135 134 135 135 140 145 144 141 137 131 122 111 105 103 95 84 71 71 66 62 46 35 37 38 43 41 42 42 37 33 27 18 15 14 12
158 153 153 153 147 146 142 137 134 131 132 136 137 138 142 143 141 130 124 120 113 102 94 90 74 67 51 47 36 12 18 26 35 45 49 46 43 34 26 23 20 16 11
156 154 150 145 147 145 136 130 125 124 127 131 133 135 139 143 144 135 131 128 118 100 90 96 80 88 68 34 22 17 14 17 20 40 41 43 44 41 32 24 20 15 9
146 147 146 142 142 137 128 118 111 108 111 118 128 136 138 141 143 134 129 127 120 109 95 94 96 75 82 52 42 23 7 5 23 30 25 30 36 37 31 19 12 6 4
136 144 152 149 148 145 140 141 142 147 143 129 121 130 135 134 137 132 127 119 118 123 130 127 115 90 53 37 54 17 359 8 23 21 16 21 20 20 21 12 3 357 351
154 157 158 159 155 155 153 143 130 129 132 126 113 111 129 136 143 148 140 137 131 127 116 118 123 122 79 54 97 80 357 341 349 357 358 9 5 7 5 358 356 351 346
158 165 168 163 156 153 138 120 106 92 83 94 112 129 128 141 144 142 144 139 137 142 155 157 149 144 147 59 72 129 140 244 298 322 337 351 349 349 345 346 346 343 342
173 159 154 153 149 146 140 145 149 153 161 177 164 155 125 130 135 138 137 135 135 135 157 173 154 155 148 155 97 64 145 170 187 303 314 329 331 320 324 336 337 339 339
153 149 148 142 141 143 145 151 150 141 133 123 126 134 127 97 109 128 136 133 126 121 139 141 142 142 148 162 162 154 104 62 162 201 278 305 318 296 303 314 325 334 334
97 121 139 139 138 141 143 145 149 145 136 134 141 148 143 118 83 104 123 118 115 111 124 133 129 130 135 142 148 154 159 174 201 204 248 287 296 291 297 306 324 329 331
Height
1521 1524 1526 1529 1531 1533 1535 1537 1538 1539 1541 1542 1543 1544 1546 1547 1548 1549 1549 1550 1550 1551 1552 1552 1552 1553 1553 1553 1553 1554 1553 1553 1553 1553 1553 1553 1553 1553 1552 1552 1552 1551 1551
1520 1523 1527 1529 1532 1534 1536 1537 1539 1540 1542 1543 1544 1546 1547 1548 1549 1550 1550 1551 1552 1552 1553 1553 1554 1554 1554 1555 1555 1555 1555 1555 1555 1555 1555 1554 1554 1554 1554 1553 1553 1552 1552
1520 1523 1527 1530 1532 1535 1536 1538 1540 1542 1543 1544 1546 1547 1548 1549 1550 1551 1552 1552 1553 1553 1554 1554 1555 1555 1556 1556 1556 1556 1556 1556 1556 1556 1556 1556 1555 1555 1555 1554 1554 1553 1553
1520 1523 1527 1530 1533 1535 1537 1539 1541 1543 1544 1545 1547 1548 1549 1550 1551 1552 1553 1553 1554 1555 1555 1556 1556 1556 1557 1557 1557 1557 1557 1557 1557 1557 1557 1557 1556 1556 1555 1555 1554 1554 1553
1521 1524 1527 1530 1533 1536 1538 1540 1542 1544 1545 1546 1548 1549 1550 1551 1552 1553 1554 1554 1555 1555 1556 1556 1557 1557 1557 1557 1558 1558 1558 1558 1558 1558 1558 1557 1557 1557 1556 1555 1555 1554 1554
1521 1525 1528 1531 1534 1536 1538 1541 1543 1544 1546 1547 1549 1550 1551 1552 1553 1554 1555 1555 1556 1556 1557 1557 1558 1558 1558 1558 1558 1558 1558 1558 1558 1558 1558 1558 1558 1557 1557 1556 1555 1555 1554
1522 1525 1529 1532 1534 1537 1539 1541 1543 1545 1547 1548 1549 1551 1552 1553 1554 1555 1555 1556 1557 1557 1557 1558 1558 1558 1559 1559 1559 1559 1559 1559 1559 1559 1558 1558 1558 1557 1557 1556 1556 1555 1554
1522 1526 1529 1532 1535 1537 1539 1542 1544 1546 1547 1549 1550 1551 1552 1554 1555 1555 1556 1557 1557 1558 1558 1558 1558 1559 1559 1559 1559 1559 1559 1559 1559 1559 1559 1558 1558 1558 1557 1556 1556 1555 1554
1523 1526 1529 1532 1535 1538 1540 1542 1544 1546 1548 1549 1551 1552 1553 1554 1555 1556 1557 1557 1558 1558 1559 1559 1559 1559 1559 1560 1560 1560 1560 1560 1559 1559 1559 1559 1558 1558 1557 1556 1556 1555 1554
1524 1526 1529 1532 1535 1537 1540 1542 1544 1546 1548 1550 1551 1552 1553 1554 1556 1557 1557 1558 1558 1559 1559 1559 1559 1560 1560 1560 1560 1560 1560 1560 1560 1559 1559 1559 1558 1558 1557 1556 1555 1555 1554
1523 1526 1529 1532 1535 1537 1540 1542 1544 1546 1548 1550 1551 1552 1554 1555 1556 1557 1557 1558 1558 1559 1559 1559 1560 1560 1560 1560 1560 1560 1560 1560 1560 1559 1559 1559 1558 1557 1557 1556 1555 1554 1553
1521 1525 1528 1532 1534 1537 1539 1541 1544 1546 1548 1549 1551 1552 1554 1555 1556 1557 1557 1558 1558 1559 1559 1559 1560 1560 1560 1560 1560 1560 1560 1560 1560 1559 1559 1558 1558 1557 1556 1556 1555 1554 1553
1520 1524 1527 1531 1534 1536 1538 1541 1543 1545 1547 1549 1551 1552 1553 1554 1555 1556 1557 1557 1558 1558 1559 1559 1559 1560 1560 1560 1560 1560 1560 1560 1559 1559 1558 1558 1557 1557 1556 1555 1554 1553 1552
1519 1523 1526 1529 1532 1535 1538 1540 1542 1544 1546 1548 1550 1551 1552 1554 1555 1555 1556 1557 1558 1558 1558 1559 1559 1559 1559 1560 1560 1560 1559 1559 1559 1558 1558 1557 1557 1556 1555 1554 1553 1552 1551
1518 1522 1525 1528 1531 1534 1537 1539 1541 1543 1545 1547 1549 1550 1552 1553 1554 1555 1556 1556 1557 1558 1558 1558 1558 1558 1559 1559 1559 1559 1559 1558 1558 1558 1557 1556 1556 1555 1554 1553 1552 1551 1550
1517 1520 1523 1527 1530 1532 1535 1538 1540 1542 1544 1546 1548 1549 1551 1552 1553 1554 1555 1555 1556 1557 1557 1557 1557 1557 1558 1558 1558 1558 1558 1557 1557 1557 1556 1555 1555 1554 1553 1552 1551 1549 1548
1515 1518 1522 1525 1528 1531 1533 1536 1538 1540 1543 1544 1546 1548 1549 1551 1552 1553 1554 1554 1555 1555 1556 1556 1556 1556 1556 1557 1556 1556 1556 1556 1556 1555 1555 1554 1553 1552 1551 1550 1549 1547 1546
1514 1517 1520 1523 1526 1529 1532 1534 1536 1539 1541 1543 1545 1546 1548 1549 1550 1551 1552 1553 1553 1554 1554 1554 1555 1555 1555 1555 1555 1555 1555 1554 1554 1554 1553 1552 1551 1551 1550 1549 1547 1545 1544
1513 1516 1519 1521 1524 1527 1530 1532 1535 1537 1539 1541 1543 1544 1546 1547 1549 1550 1550 1551 1552 1552 1552 1553 1553 1553 1553 1553 1553 1553 1553 1553 1552 1552 1551 1551 1550 1549 1548 1547 1545 1543 1542
1511 1515 1517 1520 1523 1525 1528 1530 1532 1534 1537 1539 1541 1542 1544 1545 1547 1548 1548 1549 1550 1550 1551 1551 1551 1551 1551 1551 1551 1551 1551 1550 1550 1550 1550 1549 1548 1547 1546 1544 1543 1541 1539
1510 1513 1515 1518 1521 1523 1525 1527 1529 1532 1534 1536 1538 1540 1542 1543 1544 1545 1546 1547 1548 1548 1548 1549 1549 1549 1549 1549 1549 1549 1549 1548 1548 1548 1547 1547 1546 1545 1544 1542 1540 1539 1537
1508 1510 1513 1516 1519 1521 1523 1525 1528 1530 1532 1534 1536 1538 1540 1542 1543 1543 1544 1545 1545 1546 1546 1546 1547 1547 1547 1547 1547 1546 1546 1547 1546 1546 1545 1545 1544 1543 1541 1540 1538 1536 1534
1506 1509 1511 1514 1516 1519 1521 1523 1526 1528 1530 1532 1533 1535 1537 1539 1540 1541 1542 1543 1543 1543 1543 1544 1544 1544 1544 1545 1545 1545 1545 1543 1543 1543 1542 1542 1541 1540 1539 1537 1535 1533 1531
1504 1506 1509 1512 1514 1517 1519 1521 1522 1524 1526 1529 1531 1532 1534 1536 1538 1539 1540 1540 1541 1541 1541 1542 1542 1542 1542 1542 1543 1542 1543 1542 1542 1539 1539 1539 1538 1537 1536 1534 1532 1530 1528
1502 1504 1507 1509 1512 1514 1516 1518 1520 1522 1525 1527 1529 1530 1532 1534 1535 1536 1537 1538 1538 1539 1539 1539 1540 1540 1540 1540 1540 1540 1540 1540 1539 1538 1535 1534 1534 1533 1532 1531 1529 1527 1525
1499 1502 1504 1507 1509 1512 1514 1516 1518 1520 1522 1524 1526 1528 1529 1531 1532 1534 1535 1535 1536 1536 1536 1537 1537 1537 1537 1537 1537 1537 1537 1537 1536 1535 1533 1531 1529 1529 1528 1528 1526 1524 1522